sat.trackr.live / text

‹ back to catalog

STARLINK-32372

NORAD 61960 · 2024-210B

PAYLOAD ACTIVE UNKNOWN

§ Identity

Operator
Country
US
Launch date
2024-11-14
Launch site
AFETR
Launch vehicle
Mass (kg)
RCS (m²)

Purposes: comms

External: N2YO · Heavens-Above · Gunter

§ Orbital elements

Epoch: 2026-09-21T09:25:20.950176Z

Period
94.27 min
Inclination
42.9980°
Eccentricity
0.0000812
Mean motion
15.27578492 rev/d
Perigee alt
482.5 km
Apogee alt
483.6 km
Semi-major
6,861.2 km
B*
5.3322e-4
RAAN
154.2993°
Arg perigee
289.1524°
Mean anomaly
70.9240°
Rev number
10,471

§ Raw data

STARLINK-323721 61960U 24210B   26264.39260359  .00014439  00000+0  53322-3 0  99962 61960  42.9980 154.2993 0000812 289.1524  70.9240 15.27578492104716

JSON: /api/v1/satellites/61960 · /tle

For live sub-satellite position, see the globe view (requires WebGL).

§ Visibility from observer

Set your observer location to see the next 7 days of passes ≥ 10°. The values pass through the URL so the page stays shareable.

No JS? Fill the form by hand. The geolocation button needs JavaScript.